Terminal Aerodrome Forecast
Issued by NWS Charleston, WV

Current Version | Previous Version | Graphics & Text | Print | Product List | Glossary On
Versions: 1 2 3 4 5 6 7 8 9 10 11 12 13 14 15 16 17 18 19 20 21 22 23 24
000
FTUS41 KRLX 211139
TAFBKW
TAF
KBKW 211139Z 2112/2212 15012G20KT 5SM SHRA BKN018 OVC035
     FM211600 16008G18KT 3SM SHRA OVC015=

USA.gov is the U.S. government's official web portal to all federal, state and local government web resources and services.